Flag for U.S.A. Weather past 2 weeks in Louisville, Kentucky, U.S.A.

Now
73 °F

Mostly cloudy.


Feels Like: 72 °F
Forecast: 67 / 85 °F
Wind: 3 mph from North

Location: Standiford Field

Current Time: Jul 3, 2015 at 10:23:07 PM

Latest Report: Jul 3, 2015 at 9:56 PM


Visibility: 7 mi

Pressure: 29.85 "Hg

Humidity: 84%

Dew point: 68 °F

Location of LouisvilleLocation

Historic Weather in Louisville — Graph

°F

Louisville temperature yesterday

Maximum temperature yesterday: 80 °F (at 3:56 PM)
Minimum temperature yesterday: 70 °F (at 7:56 AM)
Average temperature yesterday: 74 °F

Past Weeks' High & Low Weather Summary

 TemperatureHumidityPressure
High91 °F (Jun 23, 5:56 PM)97% (Jun 20, 5:56 AM)30.15 "Hg (Jun 20, 5:56 AM)
Low60 °F (Jun 28, 5:56 AM)31% (Jun 24, 3:56 PM)29.64 "Hg (Jun 20, 8:56 AM)
Average77 °F72%29.91 "Hg
* Reported Jun 18 9:56 PM — Jul 3 9:03 PM, Louisville, Weather by CustomWeather, © 2015

Note: Actual official high and low records may vary slightly from our data, if they occured in-between our weather recording intervals... More about our weather records

Advertising

Louisville weather history for previous 24 hours

 ConditionsComfort  
Time TempWeatherWind HumidityBarometerVisibility
9:03 PM
Fri, Jul 3
74 °FFog.3 mph88%29.86 "Hg5 mi
8:56 PM74 °FMore clouds than sun.8 mph85%29.85 "Hg6 mi
7:56 PM73 °FLight rain. Partly sunny.7 mph88%29.83 "Hg7 mi
6:56 PM77 °FLight rain. Broken clouds.5 mph77%29.83 "Hg8 mi
5:56 PM79 °FBroken clouds.5 mph72%29.82 "Hg10 mi
4:56 PM77 °FBroken clouds.5 mph79%29.81 "Hg10 mi
3:56 PM72 °FThunderstorms. Fog.8 mph91%29.83 "Hg4 mi
3:00 PM72 °FStrong thunderstorms. Fog.No wind87%29.86 "Hg3 mi
1:56 PM78 °FLight rain. Mostly cloudy.6 mph76%29.83 "Hg10 mi
12:56 PM80 °FPartly sunny.3 mph74%29.85 "Hg10 mi
11:56 AM77 °FMostly cloudy.5 mph79%29.85 "Hg10 mi
10:56 AM74 °FMostly cloudy.6 mph88%29.84 "Hg10 mi
9:56 AM73 °FLow clouds.6 mph88%29.83 "Hg10 mi
8:56 AM73 °FLow clouds.5 mph88%29.83 "Hg10 mi
7:56 AM72 °FLow clouds.7 mph91%29.84 "Hg10 mi
6:56 AM72 °FMostly cloudy.3 mph91%29.83 "Hg10 mi
5:56 AM72 °FDrizzle. Mostly cloudy.7 mph93%29.82 "Hg5 mi
4:56 AM73 °FMostly cloudy.6 mph90%29.81 "Hg10 mi
3:56 AM73 °FLow clouds.7 mph90%29.81 "Hg10 mi
2:56 AM74 °FMostly cloudy.No wind88%29.82 "Hg10 mi
1:56 AM74 °FMostly cloudy.No wind88%29.84 "Hg10 mi
12:56 AM73 °FPartly cloudy.No wind90%29.85 "Hg10 mi
11:56 PM
Thu, Jul 2
73 °FMostly cloudy.6 mph88%29.83 "Hg10 mi
10:56 PM73 °FMostly cloudy.6 mph88%29.85 "Hg10 mi
Weather by CustomWeather, © 2015

See weather overviewHow to use our weather pages